This is the latest recevied weather packets stored in our database for station/object GBTWP-2. If no packets are shown the sender has not sent any weather packets the latest 10 day(s).
| Time | Temp. | Humidity | Pressure | Rain* | Wind** | Luminosity | Snow |
|---|---|---|---|---|---|---|---|
| 1777360802 | 15.56° C | 90% | 1006.8 hPa | 0 mm | - | 0 W/m² | - |
| 1777360502 | 15.56° C | 90% | 1006.8 hPa | 0 mm | - | 0 W/m² | - |
| 1777360202 | 15.56° C | 90% | 1006.9 hPa | 0 mm | - | 0 W/m² | - |
| 1777359602 | 15.56° C | 89% | 1006.7 hPa | 0 mm | - | 0 W/m² | - |
| 1777359301 | 15.56° C | 89% | 1007 hPa | 0 mm | - | 0 W/m² | - |
| 1777358702 | 15.56° C | 89% | 1006.6 hPa | 0 mm | - | 0 W/m² | - |
| 1777358102 | 16.11° C | 87% | 1005.6 hPa | 0 mm | - | 0 W/m² | - |
| 1777357801 | 15.56° C | 88% | 1005.8 hPa | 0 mm | - | 0 W/m² | - |
| 1777357502 | 15.56° C | 89% | 1006.1 hPa | 0 mm | - | 0 W/m² | - |
| 1777357201 | 15.56° C | 89% | 1006.4 hPa | 0 mm | - | 0 W/m² | - |
| 1777356902 | 15.56° C | 90% | 1006.6 hPa | 0 mm | - | 0 W/m² | - |
| 1777356302 | 15.56° C | 91% | 1006.5 hPa | 0 mm | - | 0 W/m² | - |
| 1777356002 | 15.56° C | 90% | 1006.6 hPa | 0 mm | - | 0 W/m² | - |
| 1777355701 | 15.56° C | 89% | 1005 hPa | 0 mm | - | 0 W/m² | - |
| 1777355402 | 16.11° C | 88% | 1006.6 hPa | 0 mm | - | 0 W/m² | - |
| 1777354802 | 16.11° C | 88% | 1007.4 hPa | 0 mm | - | 0 W/m² | - |
| 1777354502 | 16.11° C | 87% | 1007.7 hPa | 0 mm | - | 0 W/m² | - |
| 1777354201 | 16.11° C | 87% | 1008 hPa | 0 mm | - | 0 W/m² | - |
| 1777353902 | 16.67° C | 86% | 1008.1 hPa | 0 mm | - | 0 W/m² | - |
| 1777353602 | 16.67° C | 85% | 1008.5 hPa | 0 mm | - | 0 W/m² | - |
| 1777353302 | 16.67° C | 86% | 1008.7 hPa | 0 mm | - | 0 W/m² | - |
| 1777353002 | 16.11° C | 86% | 1009.1 hPa | 0 mm | - | 0 W/m² | - |
| 1777352702 | 16.11° C | 86% | 1009.2 hPa | 0 mm | - | 0 W/m² | - |
| 1777351802 | 16.11° C | 87% | 1009.5 hPa | 0 mm | - | 0 W/m² | - |
| 1777350601 | 17.78° C | 79% | 1010.2 hPa | 0 mm | - | 0 W/m² | - |
* Rain latest hour (hover to see other rain measurements)
** Current wind speed in m/s (hover to see current wind gust speed)